Location: Asheville, NC
(35.6000°N, 82.5500°W)
Time: 13:49:23
(UTC-04:00)

Tiangong 2 - Pass Details

Date: 10 October 2017
Orbit: 388 x 391 km, 42.8° (Epoch: 21 October)

Event Time Altitude Azimuth Distance (km) Brightness Sun altitude
Exits shadow 05:33:43 28° 67° (ENE) 757 3.1 -24.9°
Drops below altitude 10° 05:35:24 10° 65° (ENE) 1,417 4.9 -24.6°
Sets 05:37:29 0° 64° (ENE) 2,275 6.2 -24.1°
